Flight Training


We provide structured training required to obtain a pilots certificate ranging from a Private Pilot up to ATP flying for the major airlines.

If your desire to fly is for personal pleasure the first step is to find a professional FAA licensed flight instructor to begin your journey.

The one-hour introductory flight with an instructor lasts one hour and features a log book and a six-month subscription to Flight Training magazine. After flying you to the training area, your instructor will let you test the controls. Call us now

 

Aviation Weather

Available data for KLDJ from the past 2 hours
LINDEN, NJ

Available data for KEWR from the past hour
NEWARK, NJ
TAF
KEWR 240835Z 2409/2512 32007KT P6SM SCT060 FM241100 31004KT P6SM SCT250 FM241700 25006KT P6SM SCT250 FM242200 21006KT P6SM SCT060 BKN250 FM250100 18005KT P6SM VCSH BKN050 FM250700 20009KT P6SM BKN025 OVC050

Our planes

Some of our students